Flag for Netherlands Weather past 2 weeks in Maastricht, Netherlands

Now
46 °F

Broken clouds.


Feels Like: 39 °F
Forecast: 38 / 47 °F
Wind: 17 mph from Southwest

Location: Maastricht Airport Zuid Limburg

Current Time: Mar 1, 2015 at 9:42:06 AM

Latest Report: Mar 1, 2015 at 8:55 AM


Visibility: N/A

Pressure: 29.59 "Hg

Humidity: 87%

Dew point: 43 °F

Location of MaastrichtLocation

Historic Weather in Maastricht — Graph

°F

Maastricht temperature yesterday

Maximum temperature yesterday: 46 °F (at 1:25 PM)
Minimum temperature yesterday: 30 °F (at 12:25 AM)
Average temperature yesterday: 39 °F

Past Weeks' High & Low Weather Summary

 TemperatureHumidityPressure
High52 °F (Feb 14, 1:55 PM)100% (Feb 16, 12:55 AM)30.74 "Hg (Feb 16, 12:55 AM)
Low28 °F (Feb 18, 3:55 AM)46% (Feb 28, 4:55 PM)29.36 "Hg (Feb 23, 1:25 PM)
Average39 °F84%29.95 "Hg
* Reported Feb 14 8:25 AM — Mar 1 8:25 AM, Maastricht, Weather by CustomWeather, © 2015

Note: Actual official high and low records may vary slightly from our data, if they occured in-between our weather recording intervals... More about our weather records

Advertising

Maastricht weather history for previous 24 hours

 ConditionsComfort  
Time TempWeatherWind HumidityBarometerVisibility
8:25 AM
Sun, Mar 1
46 °FMore clouds than sun.20 mph87%29.59 "HgN/A
7:55 AM46 °FMostly cloudy.21 mph87%29.56 "HgN/A
7:25 AM45 °FDrizzle. Cloudy.24 mph93%29.56 "Hg3 mi
6:55 AM45 °FMostly cloudy.22 mph87%29.56 "HgN/A
6:25 AM45 °FMostly cloudy.24 mph87%29.56 "HgN/A
5:55 AM45 °FOvercast.25 mph81%29.56 "HgN/A
5:25 AM43 °FOvercast.24 mph87%29.56 "HgN/A
4:55 AM43 °FMostly cloudy.23 mph87%29.56 "HgN/A
4:25 AM41 °FDrizzle. Overcast.23 mph87%29.56 "HgN/A
3:55 AM41 °FOvercast.21 mph87%29.59 "HgN/A
3:25 AM41 °FPassing clouds.21 mph87%29.62 "HgN/A
2:55 AM41 °FLight rain. Partly cloudy.18 mph81%29.65 "HgN/A
2:25 AM43 °FPassing clouds.23 mph76%29.65 "HgN/A
1:55 AM45 °FPassing clouds.22 mph61%29.68 "HgN/A
1:25 AM43 °FOvercast.21 mph61%29.68 "HgN/A
12:55 AM45 °FOvercast.21 mph57%29.71 "HgN/A
12:25 AM45 °FOvercast.23 mph57%29.74 "HgN/A
11:55 PM
Sat, Feb 28
45 °FOvercast.24 mph53%29.74 "HgN/A
11:25 PM45 °FPassing clouds.24 mph53%29.74 "HgN/A
10:55 PM45 °FOvercast.23 mph53%29.77 "HgN/A
9:55 PM43 °FOvercast.21 mph53%29.80 "HgN/A
9:25 PM43 °FMostly cloudy.21 mph53%29.83 "HgN/A
8:55 PM43 °FMostly cloudy.17 mph57%29.86 "HgN/A
8:25 PM43 °FOvercast.18 mph57%29.86 "HgN/A
7:55 PM43 °FMostly cloudy.16 mph53%29.86 "HgN/A
7:25 PM43 °FPassing clouds.14 mph57%29.89 "HgN/A
6:55 PM43 °FMostly cloudy.12 mph57%29.89 "HgN/A
6:25 PM43 °FQuite cool.14 mph57%29.89 "HgN/A
5:55 PM45 °FQuite cool.14 mph53%29.89 "HgN/A
5:25 PM46 °FCool.17 mph50%29.92 "HgN/A
4:55 PM46 °FCool.20 mph46%29.92 "HgN/A
4:25 PM46 °FClear.18 mph50%29.95 "HgN/A
3:55 PM46 °FCool.18 mph50%29.95 "HgN/A
3:25 PM46 °FCool.18 mph50%29.98 "HgN/A
2:55 PM46 °FCool.20 mph53%29.98 "HgN/A
2:25 PM46 °FCool.20 mph53%30.01 "HgN/A
1:55 PM46 °FPassing clouds.21 mph53%30.04 "HgN/A
1:25 PM46 °FClear.17 mph53%30.04 "HgN/A
12:55 PM45 °FClear.17 mph61%30.04 "HgN/A
12:25 PM43 °FClear.20 mph61%30.07 "HgN/A
11:55 AM43 °FClear.21 mph66%30.07 "HgN/A
11:25 AM41 °FClear.21 mph66%30.07 "HgN/A
10:55 AM39 °FClear.16 mph75%30.07 "HgN/A
10:25 AM37 °FClear.16 mph75%30.09 "HgN/A
9:55 AM36 °FClear.15 mph81%30.09 "HgN/A
9:25 AM36 °FClear.16 mph81%30.12 "HgN/A
Weather by CustomWeather, © 2015

See weather overviewHow to use our weather pages